Regional Weather Roundup
Issued by NWS

Home | Current Version | Previous Version | Graphics & Text | Print | Product List | Glossary Off
Versions: 1 2 3 4 5 6 7 8 9 10 11 12 13 14 15 16 17 18 19 20 21 22 23 24 25 26 27 28 29 30 31 32 33 34 35 36 37 38 39 40 41 42 43 44 45 46 47 48 49 50

839
ASUS43 KFSD 252310
RWRSD

WEATHER ROUNDUP FOR SOUTH DAKOTA
NATIONAL WEATHER SERVICE SIOUX FALLS SD
600 PM CDT TUE JUL 25 2017

NOTE: "FAIR" INDICATES FEW OR NO CLOUDS BELOW 12,000 FEET WITH NO
SIGNIFICANT WEATHER AND/OR OBSTRUCTIONS TO VISIBILITY.


SDZ001>005-009-010-012>017-260000-
NORTHWEST AND NORTH CENTRAL SOUTH DAKOTA

CITY           SKY/WX    TMP DP  RH WIND       PRES   REMARKS
BUFFALO          N/A     79  48  33 NE13      30.01S
FAITH            N/A     82  57  42 NE18      29.99F
MOBRIDGE       CLOUDY    84  62  47 NE15      29.93F
$$

SDZ012>016-024>037-041>051-057-063-072>074-260000-
SOUTHWEST AND SOUTH CENTRAL SOUTH DAKOTA

CITY           SKY/WX    TMP DP  RH WIND       PRES   REMARKS
RAPID CTY ARPT CLOUDY    86  56  35 N18       30.01F
PIERRE         CLOUDY    90  67  46 N22G28    29.85F
CUSTER         CLOUDY    77  50  38 E14G24    30.17S
ELLSWORTH AFB  PTSUNNY   86  56  36 N10       30.02F
PHILIP         MOSUNNY   93  63  36 NE21G29   29.89F
PINE RIDGE     CLOUDY    92  63  38 NE17G24   29.95R
SPEARFISH      FAIR      77  57  50 NE8       30.11S
WINNER         FAIR      96  68  39 N17       29.84R HX 101
$$

SDZ004>011-016>023-039-040-260000-
NORTHEAST SOUTH DAKOTA

CITY           SKY/WX    TMP DP  RH WIND       PRES   REMARKS
ABERDEEN       MOSUNNY   82  71  69 N20       29.91S
WATERTOWN      CLOUDY    83  73  72 SE13G20   29.89R
BROOKINGS      LGT RAIN  72  70  94 E9        29.91F
SISSETON         N/A     82  73  74 N10       29.90R
$$

SDZ017-020-022-023-036>040-048>070-260000-
SOUTHEAST SOUTH DAKOTA

CITY           SKY/WX    TMP DP  RH WIND       PRES   REMARKS
SIOUX FALLS    CLOUDY    90  62  39 S16G23    29.87R
HURON          CLOUDY    83  68  60 SE17G26   29.85R
CHAMBERLAIN    PTSUNNY   95  71  45 NE15G22   29.82R HX 102
MITCHELL       TSTM      73  69  87 N14G23    29.87R
YANKTON        CLOUDY    93  58  30 S18G31    29.85R
$$

ABBREVIATIONS USED IN REMARKS
   TC - TEMPERATURE IN CELSIUS
  WCI - WIND CHILL INDEX
   HX - HEAT INDEX
  VSB - VISIBILITY





USA.gov is the U.S. government's official web portal to all federal, state and local government web resources and services.